Location: Drummondville
(45.8830°N, 72.4830°W)
Time: 19:26:27
(UTC-05:00)

Vanguard 3 - All Passes

Search period start: 23 February 2018 00:00
Search period end: 05 March 2018 00:00
Orbit: 508 x 3264 km, 33.3° (Epoch: 23 February)

Date Brightness Start Highest point End Pass type
(mag) Time Alt. Az. Time Alt. Az. Time Alt. Az.
23 Feb - 13:45:07 10° SSW 13:47:47 13° S 13:50:03 10° SE daylight
23 Feb - 15:56:03 10° SW 15:58:43 15° S 16:01:03 10° SE daylight
24 Feb - 12:32:05 10° S 12:34:13 11° SSE 12:36:07 10° SSE daylight
24 Feb - 14:41:55 10° SW 14:45:32 17° S 14:48:24 10° SE daylight
24 Feb - 16:54:22 10° SW 16:56:12 13° SSW 16:57:55 10° SSE daylight
25 Feb - 13:27:40 10° SSW 13:32:08 17° S 13:35:33 10° SE daylight
25 Feb - 15:39:51 10° SW 15:43:07 17° S 15:45:48 10° SE daylight
26 Feb - 12:13:33 10° SSW 12:18:30 16° SSE 12:22:18 10° SE daylight
26 Feb - 14:25:14 10° SW 14:29:54 20° S 14:33:22 10° SE daylight
26 Feb - 16:38:35 10° SW 16:40:32 13° SSW 16:42:18 10° S daylight
27 Feb - 11:00:04 10° S 11:04:34 13° SSE 11:08:14 10° SE daylight
27 Feb - 13:10:28 10° SW 13:16:29 22° S 13:20:41 10° SE daylight
27 Feb - 15:23:33 10° SW 15:27:29 19° SSW 15:30:32 10° SE daylight
28 Feb - 11:55:41 10° SSW 12:02:44 21° SSE 12:07:40 10° ESE daylight
28 Feb - 14:08:32 10° SW 14:14:15 24° S 14:18:14 10° SE daylight
28 Feb - 16:22:41 10° SW 16:24:50 13° SSW 16:26:44 10° S daylight
01 Mar - 10:41:17 10° SSW 10:48:39 18° SSE 10:54:04 10° ESE daylight
01 Mar - 12:53:17 10° SW 13:00:44 26° S 13:05:39 10° ESE daylight
01 Mar - 15:07:11 10° WSW 15:11:48 21° SSW 15:15:14 10° SSE daylight
02 Mar - 09:27:59 10° S 09:34:16 14° SSE 09:39:21 10° SE daylight
02 Mar - 11:37:59 10° SW 11:46:52 26° S 11:52:44 10° ESE daylight
02 Mar - 13:51:46 10° WSW 13:58:33 27° S 14:03:03 10° SE daylight
02 Mar - 16:06:40 10° SW 16:09:05 13° SSW 16:11:09 10° S daylight
03 Mar - 10:22:58 10° SSW 10:32:39 23° SSE 10:39:20 10° ESE daylight
03 Mar - 12:36:06 10° SW 12:44:56 31° S 12:50:30 10° ESE daylight
03 Mar - 14:50:43 10° WSW 14:56:05 22° SSW 14:59:53 10° SSE daylight
04 Mar - 09:08:45 10° SSW 09:18:05 19° SSE 09:25:06 10° ESE daylight
04 Mar - 11:20:20 10° SW 11:30:56 31° S 11:37:37 10° ESE daylight
04 Mar - 13:34:54 10° WSW 13:42:46 30° S 13:47:46 10° SE daylight
04 Mar - 15:50:34 10° WSW 15:53:16 13° SSW 15:55:33 10° S daylight
